Regional Weather Roundup
Issued by NWS

Home | Current Version | Previous Version | Graphics & Text | Print | Product List | Glossary On
Versions: 1 2 3 4 5 6 7 8 9 10 11 12 13 14 15 16 17 18 19 20 21 22 23 24 25 26 27 28 29 30 31 32 33 34 35 36 37 38 39 40 41 42 43 44 45 46 47 48 49 50
000
ASUS43 KMPX 140201
RWRMN
WEATHER ROUNDUP FOR MINNESOTA
NATIONAL WEATHER SERVICE TWIN CITIES/CHANHASSEN MN
800 PM CST SAT FEB 13 2016


NOTE: "FAIR" INDICATES FEW OR NO CLOUDS BELOW 12,000 FEET WITH NO
SIGNIFICANT WEATHER AND/OR OBSTRUCTIONS TO VISIBILITY. N/A MEANS
CURRENT SKY AND/OR WEATHER CONDITIONS ARE NOT AVAILABLE.

MNZ060>063-068>070-140300-
   Twin Cities Metro

CITY           SKY/WX    TMP DP  RH WIND       PRES   REMARKS
TWIN CITIES    CLOUDY     6  -7  54 SE9       30.39F WCI  -8
ST PAUL        CLOUDY     7  -6  55 SE7       30.42F WCI  -5
CRYSTAL        CLOUDY     8  -7  50 SE9       30.37F WCI  -5
BLAINE         MOCLDY     9  -6  52 SE5       30.38F WCI   0
LAKEVILLE      CLOUDY     3  -6  66 SE6       30.38F WCI  -8
EDEN PRAIRIE   CLOUDY     7  -6  55 SE10      30.36F WCI  -8
SOUTH ST PAUL  CLOUDY     7  -7  53 SE3       30.40F
LAKE ELMO      FAIR       5  -8  56 CALM      30.40F
$$
MNZ001>005-007-008-013>017-022>024-027-028-140300-
   Northwest Minnesota

CITY           SKY/WX    TMP DP  RH WIND       PRES   REMARKS
BEMIDJI        CLOUDY     3 -11  51 SE10      30.21F WCI -13
HALLOCK        CLOUDY    12   0  57 SE16      30.14F WCI  -4
ROSEAU         CLOUDY     5  -9  51 SE10      30.19F WCI -10
WARROAD        CLOUDY     3 -11  51 SE10      30.20F WCI -12
THIEF RVR FALL CLOUDY    10  -8  44 SE17      30.17F WCI  -7
CROOKSTON      CLOUDY    12   1  62 S20       30.18F WCI  -6
FOSSTON        CLOUDY     9  -8  47 SE14G21   30.17F WCI  -8
DETROIT LAKES  CLOUDY     9   0  66 SE16G23   30.19F WCI  -9
MOORHEAD       CLOUDY    12   0  57 SE24      30.17F WCI  -8
PARK RAPIDS    CLOUDY     6  -7  54 SE14      30.22F WCI -11
MAHNOMEN       CLOUDY     9  -5  54 SE20G25   30.18F WCI -11
$$
MNZ006-009>011-018-025>026-140300-
   North Central Minnesota

CITY           SKY/WX    TMP DP  RH WIND       PRES   REMARKS
BAUDETTE       CLOUDY     1 -15  47 SE10      30.22F WCI -15
FLAG ISLAND    CLOUDY     1 -13  51 SE8       30.22F WCI -12
INTL FALLS     CLOUDY    -4 -14  62 E7        30.28F WCI -18
WASKISH        CLOUDY     1 -11  55 SE6       30.24F WCI -10
LONGVILLE      CLOUDY     1 -13  51 SE5       30.28F WCI  -8
GRAND RAPIDS   CLOUDY    -2 -18  46 SE3       30.28F
CRANE LAKE     CLOUDY   -11 -17  77 CALM      30.35F
ORR            CLOUDY     0 -15  50 CALM      30.26F
COOK           CLOUDY    -8 -15  71 CALM      30.29F
WALKER         FAIR       4 -12  47 SE6       30.25F WCI  -7
$$
MNZ012-019>021-037-140300-
   Northeast Minnesota

CITY           SKY/WX    TMP DP  RH WIND       PRES   REMARKS
DULUTH         CLOUDY    -1 -13  56 S5        30.31F WCI -11
ELY            CLOUDY    -9 -15  77 SE5       30.31F WCI -21
HIBBING        CLOUDY    -6 -14  68 SE3       30.29F
EVELETH        CLOUDY    -6 -15  65 CALM      30.31F
DULUTH HARBOR  CLOUDY     5  -9  51 S6        30.41F WCI  -6
TWO HARBORS    CLEAR     -2 -13  60 CALM      30.33F
SILVER BAY     CLOUDY    -4  -9  77 CALM      30.33F
GRAND MARAIS     N/A     -1  -7  75 NW6       30.40F WCI -13
G MARAIS ARPRT CLEAR     -9 -15  77 CALM      30.28F
$$
MNZ029>031-032-039>041-046>048-054>057-064-140300-
   West Central Minnesota

CITY           SKY/WX    TMP DP  RH WIND       PRES   REMARKS
FERGUS FALLS   CLOUDY    12   0  57 SE22      30.23F WCI  -7
WHEATON        CLOUDY    10   3  72 SE30      30.18F WCI -12
MORRIS         CLOUDY    10   1  67 SE24      30.19F WCI -10
ALEXANDRIA     CLOUDY     9  -2  61 SE15      30.22F WCI  -8
ELBOW LAKE     CLOUDY    10   0  62 E21       30.20F WCI  -9
WADENA         CLOUDY     7  -6  56 SE15      30.22F WCI -11
GLENWOOD       CLOUDY     9   0  66 SE16      30.24F WCI  -9
APPLETON       CLOUDY    10   1  67 SE17      30.22F WCI  -7
BENSON         CLOUDY    10   0  61 S16       30.25F WCI  -7
ORTONVILLE     CLOUDY    10   1  67 SE18G29   30.18F WCI  -8
MADISON        CLOUDY    12   3  67 SE22      30.21F WCI  -7
WILLMAR        CLOUDY    10   3  72 SE17      30.28F WCI  -7
$$
MNZ033>034-036-042>043-049>051-058-059-140300-
   Central Minnesota

CITY           SKY/WX    TMP DP  RH WIND       PRES   REMARKS
ST CLOUD       CLOUDY     9  -5  53 SE9       30.32F WCI  -4
SAUK CENTRE    CLOUDY     8  -3  61 SE13      30.27F WCI  -8
PAYNESVILLE    CLOUDY     9  -2  61 SE10      30.29F WCI  -5
AITKIN         CLOUDY     1 -15  46 SE3       30.30F
PINE RIVER     CLOUDY     1  -9  60 SE5       30.30F WCI  -8
BRAINERD       CLOUDY     2 -11  54 SE5       30.29F WCI  -8
STAPLES        CLOUDY     5  -8  56 SE8       30.26S WCI  -8
LONG PRAIRIE   CLOUDY     9  -4  56 SE10G16   30.26F WCI  -6
LITTLE FALLS   CLOUDY     9  -6  52 SE7       30.30F WCI  -3
LITCHFIELD     CLOUDY     9   0  66 SE12G17   30.30F WCI  -6
BUFFALO        CLOUDY     8  -6  52 E8        30.35F WCI  -5
MAPLE LAKE     CLOUDY    10  -2  59 SE9G17    30.34F WCI  -3
$$
MNZ037-044-045-052-053-140300-
   East Central Minnesota

CITY           SKY/WX    TMP DP  RH WIND       PRES   REMARKS
PRINCETON      CLOUDY     9  -6  52 E6        30.35F WCI  -1
MORA           CLOUDY     5  -8  56 SE3       30.37F
CAMBRIDGE      CLOUDY     7  -6  56 CALM      30.36F
RUSH CITY      CLOUDY     3 -10  54 SE5       30.38F WCI  -7
MOOSE LAKE     CLOUDY     0 -15  50 CALM      30.34F
HINCKLEY       FAIR       3  -9  55 SE5       30.36F WCI  -6
CLOQUET        CLOUDY     0 -17  46 CALM      30.32F
MCGREGOR       CLOUDY     3  -9  55 SE6       30.32F WCI  -8
$$
MNZ071>073-080-081-089-090-097-098-140300-
   Southwest Minnesota

CITY           SKY/WX    TMP DP  RH WIND       PRES   REMARKS
MONTEVIDEO     CLOUDY    10   1  67 S14G21    30.26F WCI  -5
GRANITE FALLS  CLOUDY    12   5  72 SE14G24   30.28F WCI  -3
CANBY          CLOUDY    15   6  68 E17       30.20F WCI  -2
MARSHALL       FLURRIES  10   1  67 SE20      30.23F WCI  -9
REDWOOD FALLS  CLOUDY    10   3  73 SE17      30.28F WCI  -8
OLIVIA         CLOUDY    12   3  67 SE16      30.28F WCI  -4
PIPESTONE      LGT SNOW  10   1  67 S20G25    30.14F WCI  -8
WINDOM           N/A      9   0  66 SE14      30.25R WCI  -8
WORTHINGTON    CLOUDY     9   1  72 SE14G22   30.22F WCI  -8
JACKSON        CLOUDY    10   1  67 SE13      30.26S WCI  -5
TRACY          CLOUDY    10   2  70 SE14G20   30.23F WCI  -5
SLAYTON        CLOUDY     8   4  82 SE20      30.20F WCI -11
$$
MNZ065>067-074>077-082>085-091>093-140300-
   South Central Minnesota

CITY           SKY/WX    TMP DP  RH WIND       PRES   REMARKS
MANKATO        CLOUDY     7  -2  66 SE15      30.34F WCI -11
NEW ULM        CLOUDY     9   0  66 SE14      30.31F WCI  -8
ST JAMES       CLOUDY    10   3  72 E13       30.32F WCI  -5
FAIRMONT       CLOUDY     9   0  66 SE18      30.29F WCI -10
GLENCOE        CLOUDY    10   2  70 SE14      30.33F WCI  -5
FARIBAULT      CLOUDY     7  -6  56 SE8       30.37F WCI  -6
OWATONNA       CLOUDY     5  -8  56 SE13      30.35F WCI -12
WASECA         CLOUDY     7  -4  61 SE13      30.36F WCI  -9
ALBERT LEA     CLOUDY     7  -2  66 SE12      30.33F WCI  -9
$$
MNZ078>079-086>088-094>096-140300-
   Southeast Minnesota

CITY           SKY/WX    TMP DP  RH WIND       PRES   REMARKS
ROCHESTER      CLOUDY     0  -9  65 S8        30.36F WCI -14
RED WING       CLOUDY     7 -11  43 SE3       30.41F
STANTON        CLOUDY     5  -6  61 CALM      30.37F
DODGE CENTER   CLOUDY     1  -9  60 SE9       30.34F WCI -14
WINONA         CLOUDY     9  -6  52 CALM      30.46F
AUSTIN         CLOUDY     3  -4  72 SE6       30.36F WCI  -8
PRESTON        CLOUDY     0 -10  63 SE5       30.38F WCI -10
$$
ABBREVIATIONS USED IN REMARKS
   TC - TEMPERATURES IN CELSIUS
  WCI - WIND CHILL INDEX
   HX - HEAT INDEX
  VSB - VISIBILITY
$$



USA.gov is the U.S. government's official web portal to all federal, state and local government web resources and services.